Location: Ladrillo (historical)
(32.8195°N, 117.2231°W)
Time: 21:10:51
(UTC+00:00)

Cosmos 1484 Rocket - Pass Details

Date: 29 October 2020
Orbit: 504 x 560 km, 97.4° (Epoch: 25 November)

Event Time Altitude Azimuth Distance (km) Brightness Sun altitude
Rises 13:17:19 0° 350° (N) 2,668 6.1 -10.5°
Reaches altitude 10° 13:20:06 10° 328° (NNW) 1,762 5.0 -10.0°
Maximum altitude 13:22:24 16° 290° (WNW) 1,429 4.3 -9.5°
Drops below altitude 10° 13:24:41 10° 253° (WSW) 1,738 4.8 -9.0°
Sets 13:27:24 0° 230° (SW) 2,610 5.9 -8.5°
